SCP
0 0 0 0 0 0 0 0 0 0 0 0 0 0 0 0 0 0 0 0 0 0 0 0 0 0 0 0 0 0 0 0 0 0 0 0 0 0 0 0 0 0 0
0 0 0 0 0 0 0 0 0 0 0 0 0 0 0 0 0 0 0 0 0 0 0 0 0 0 0 0 0 0 0 0 0 0 0 0 0 0 0 0 0 0 0
0 0 0 0 0 0 0 0 0 0 0 0 0 0 0 0 0 0 0 0 0 0 0 0 0 0 0 0 0 0 0 0 0 0 0 0 0 0 0 0 0 0 0
0 0 0 0 0 0 0 0 0 0 0 0 0 0 0 0 0 0 0 0 0 0 0 0 0 0 0 0 0 0 0 0 0 0 0 0 0 0 0 0 0 0 0
0 0 0 0 0 0 0 0 0 0 0 0 0 0 0 0 0 0 0 0 0 0 0 0 0 0 0 0 0 0 0 0 0 0 0 0 0 0 0 0 0 0 0
0 0 0 0 0 0 0 0 0 0 0 0 0 0 0 0 0 0 0 0 0 0 0 0 0 0 0 0 0 0 0 0 0 0 0 0 0 0 0 0 0 0 0
0 0 0 0 0 0 0 0 0 0 0 0 0 0 0 0 0 0 0 0 0 0 0 0 0 0 0 0 0 0 0 0 0 0 0 0 0 0 0 0 0 0 0
0 0 0 0 0 0 0 0 0 0 0 0 0 0 0 0 0 0 0 0 0 0 0 0 0 0 0 0 0 0 0 0 0 0 0 0 0 0 0 0 0 0 0
0 0 0 0 0 0 0 0 0 0 0 0 0 0 0 0 0 0 0 0 0 0 0 0 0 0 0 0 0 0 0 0 0 0 0 0 0 0 0 0 0 0 0
0 0 0 0 0 0 0 0 0 0 0 0 0 0 0 0 0 0 0 0 0 0 0 0 0 0 0 0 0 0 0 0 0 0 0 0 0 0 0 0 0 0 0
0 0 0 0 0 0 0 0 0 0 0 0 0 0 0 0 0 0 0 0 0 0 0 0 0 0 0 0 0 0 0 0 0 0 0 0 0 0 0 0 0 0 0
0 0 0 0 0 0 0 0 0 0 0 0 0 0 0 0 0 0 0 0 0 0 0 0 0 0 0 0 0 0 0 0 0 0 0 0 0 0 0 0 0 0 0
0 0 0 0 0 0 0 0 0 0 0 0 0 0 0 0 0 0 0 0 0 0 0 0 0 0 0 0 0 0 0 0 0 0 0 0 0 0 0 0 0 0 0
0 0 0 0 0 0 0 0 0 0 0 0 0 0 0 0 0 0 0 0 0 0 0 0 0 0 0 0 0 0 0 0 0 0 0 0 0 0 0 0 0 0 0
0 0 0 0 0 0 0 0 0 0 0 0 0 0 0 0 0 0 0 0 0 0 0 0 0 0 0 0 0 0 0 0 0 0 0 0 0 0 0 0 0 0 0
0 0 0 0 0 0 0 0 0 0 0 0 0 0 0 0 0 0 0 0 0 0 0 0 0 0 0 0 0 0 0 0 0 0 0 0 0 0 0 0 0 0 0
0 0 0 0 0 0 0 0 0 0 0 0 0 0 0 0 0 0 0 0 0 0 0 0 0 0 0 0 0 0 0 0 0 0 0 0 0 0 0 0 0 0 0
0 0 0 0 0 0 0 0 0 0 0 0 0 0 0 0 0 0 0 0 0 0 0 0 0 0 0 0 0 0 0 0 0 0 0 0 0 0 0 0 0 0 0
0 0 0 0 0 0 0 0 0 0 0 0 0 0 0 0 0 0 0 0 0 0 0 0 0 0 0 0 0 0 0 0 0 0 0 0 0 0 0 0 0 0 0
0 0 0 0 0 0 0 0 0 0 0 0 0 0 0 0 0 0 0 0 0 0 0 0 0 0 0 0 0 0 0 0 0 0 0 0 0 0 0 0 0 0 0
0 0 0 0 0 0 0 0 0 0 0 0 0 0 0 0 0 0 0 0 0 0 0 0 0 0 0 0 0 0 0 0 0 0 0 0 0 0 0 0 0 0 0
0 0 0 0 0 0 0 0 0 0 0 0 0 0 0 0 0 0 0 0 0 0 0 0 0 0 0 0 0 0 0 0 0 0 0 0 0 0 0 0 0 0 0
0 0 0 0 0 0 0 0 0 0 0 0 0 0 0 0 0 0 0 0 0 0 0 0 0 0 0 0 0 0 0 0 0 0 0 0 0 0 0 0 0 0 0
0 0 0 0 0 0 0 0 0 0 0 0 0 0 0 0 0 0 0 0 0 0 0 0 0 0 0 0 0 0 0 0 0 0 0 0 0 0 0 0 0 0 0
0 0 0 0 0 0 0 0 0 0 0 0 0 0 0 0 0 0 0 0 0 0 0 0 0 0 0 0 0 0 0 0 0 0 0 0 0 0 0 0 0 0 0
0 0 0 0 0 0 0 0 0 0 0 0 0 0 0 0 0 0 0 0 0 0 0 0 0 0 0 0 0 0 0 0 0 0 0 0 0 0 0 0 0 0 0
Wind_Speed
7 7 7 7 7 7 7 7 7 6 6 7 8 8 7 7 7 7 7 7 8 7 6 7 8 6 5 4 4 4 5 5 8 6 4 4 4 6 8 6 7 7 9
6 6 6 6 6 6 7 7 6 6 6 7 6 7 7 7 7 8 8 8 8 8 8 7 8 6 6 5 5 6 6 6 6 9 5 4 6 6 7 7 8 7 6
5 5 5 5 6 7 7 6 6 6 5 5 6 7 7 7 7 8 8 8 8 8 8 8 8 7 7 5 6 6 5 6 6 7 7 4 5 5 5 6 7 7 8
5 5 6 6 6 6 5 5 5 5 5 5 6 6 6 6 6 6 6 7 7 7 7 7 7 8 8 7 6 7 6 6 6 6 7 5 5 5 4 5 6 5 7
5 5 6 5 4 4 4 4 4 4 5 5 5 5 4 5 5 6 6 6 6 6 6 6 7 8 10 8 6 6 6 5 5 6 7 5 5 4 5 5 7 6 6
5 5 4 4 4 4 4 3 3 3 3 3 4 4 4 4 6 8 7 5 6 6 6 5 6 7 10 13 14 12 9 7 6 6 6 7 7 6 6 6 6 7 7
5 4 4 4 4 4 3 3 3 3 3 3 3 4 4 5 7 8 8 5 5 5 5 5 5 6 8 6 10 13 12 15 14 8 7 8 7 6 6 7 7 8 8
4 4 4 4 4 3 3 3 3 2 3 3 3 3 3 4 6 7 6 3 3 4 5 5 5 5 6 6 6 6 7 8 10 7 7 8 8 7 8 8 8 8 7
4 4 4 5 4 4 3 3 2 2 2 2 2 3 3 4 5 5 4 2 2 4 4 4 5 6 10 12 7 6 7 7 11 15 15 14 16 16 12 6 5 6 7
5 4 4 4 4 4 4 3 2 2 2 2 1 2 3 3 4 4 4 2 2 3 3 4 8 9 11 13 7 6 8 7 6 7 8 10 9 10 13 7 4 6 6
4 4 4 4 4 3 3 2 2 2 1 1 1 1 2 3 4 5 5 2 3 3 3 3 4 11 13 13 11 6 9 9 4 5 5 5 5 4 5 5 4 5 6
4 4 4 3 3 3 3 2 2 2 2 1 0 1 1 2 3 5 7 7 6 3 4 3 5 11 12 12 9 10 13 11 3 2 3 4 4 5 5 5 6 6 6
5 4 3 3 2 3 3 3 2 2 1 1 1 2 2 2 3 6 8 8 9 5 4 8 10 11 10 7 9 12 9 3 3 3 5 5 4 5 5 4 5 5 5
5 4 3 3 2 2 2 2 2 2 2 1 2 2 2 2 2 2 3 4 6 5 4 6 9 9 7 7 7 6 3 3 4 4 4 4 4 4 4 4 4 3 3
5 4 3 3 3 2 1 1 2 2 3 3 3 3 3 3 5 7 5 3 3 4 4 2 2 2 3 3 3 3 3 3 4 4 4 4 5 5 4 3 3 3 3
5 4 3 2 2 2 1 1 1 2 3 4 5 5 4 7 9 10 10 10 10 10 6 2 3 3 4 4 4 4 3 4 4 4 4 5 5 5 5 4 3 3 4
5 4 3 3 2 2 2 1 1 2 3 4 5 6 7 8 9 9 9 9 9 9 3 3 3 4 4 4 4 4 4 4 4 4 5 5 5 5 5 5 4 4 4
4 4 3 3 2 2 2 1 1 1 2 2 3 6 7 8 8 9 9 7 4 4 3 4 4 4 4 4 4 4 4 4 4 4 4 4 4 4 5 5 4 4 4
4 3 3 2 2 2 1 1 1 1 2 2 3 4 6 7 8 8 7 3 3 4 4 4 4 4 4 4 5 4 4 5 5 4 4 4 4 4 5 4 4 7 5
3 3 2 2 2 2 1 1 1 2 2 2 3 3 3 4 3 4 3 3 3 4 4 4 5 5 5 5 5 4 5 5 5 4 4 4 4 4 5 5 4 4 4
3 3 2 1 1 1 1 1 2 2 2 3 4 5 8 4 3 4 4 4 4 4 4 4 5 5 5 4 4 5 6 5 5 5 5 4 4 4 4 4 5 4 4
3 2 2 2 1 1 1 2 2 2 3 4 4 5 9 5 3 4 4 5 4 4 4 5 5 5 5 5 5 5 6 6 5 5 5 5 5 5 5 4 4 4 4
3 2 1 1 1 2 2 1 2 3 3 4 4 4 4 4 4 5 5 5 5 5 5 5 5 6 5 5 5 6 6 6 6 5 6 5 5 5 5 5 5 5 5
3 2 2 1 1 2 2 2 3 3 4 4 4 5 5 5 5 6 6 5 5 5 5 5 6 8 9 7 6 6 6 7 7 6 8 7 6 6 5 5 5 5 5
2 2 2 2 2 2 2 3 3 4 4 5 5 5 5 5 6 6 6 5 6 6 7 7 6 7 9 10 9 8 12 16 14 9 7 7 7 7 6 6 5 5 5
2 2 2 2 2 2 2 3 4 4 5 5 5 5 5 6 6 6 6 6 6 6 7 7 8 9 10 9 11 14 17 17 17 16 9 6 7 7 6 6 6 6 5
Wind_Direction
201 200 202 204 203 202 205 208 207 205 200 202 204 205 207 207 203 203 211 205 210 217 212 211 221 213 212 213 210 212 218 215 251 266 245 250 251 260 274 273 272 271 278
198 194 199 200 196 202 210 210 203 203 202 204 203 205 209 209 204 204 212 211 213 219 219 215 225 217 218 216 213 219 225 221 234 268 270 256 249 252 259 266 274 274 267
187 187 192 196 198 206 212 208 201 201 202 201 199 207 211 211 208 210 212 214 216 220 218 217 224 216 224 223 221 225 229 234 230 253 270 256 255 256 264 268 267 269 273
181 185 196 202 204 208 207 202 200 199 200 201 205 210 212 210 210 211 211 215 219 223 222 222 223 218 224 224 227 229 231 236 239 249 264 263 259 255 253 267 277 262 269
179 190 203 202 199 198 198 199 198 198 203 202 204 212 211 208 210 207 210 215 218 226 228 228 228 230 235 237 237 231 225 233 241 251 263 269 265 262 257 256 274 280 269
182 197 195 187 187 192 196 192 190 197 199 196 204 209 215 223 228 224 219 215 217 222 231 234 235 240 249 256 261 262 252 246 246 247 258 262 266 258 260 262 273 284 285
183 188 182 179 185 190 183 178 190 196 191 201 211 210 223 237 241 241 235 223 217 223 227 233 244 246 258 249 261 269 268 268 268 265 261 262 266 261 263 267 265 267 271
179 184 180 175 181 178 173 187 195 188 193 205 214 218 228 249 254 256 253 236 222 227 228 230 238 247 248 254 245 250 252 258 264 265 256 259 260 260 252 262 268 271 267
184 189 186 176 175 175 185 195 191 180 195 206 210 212 227 259 266 265 262 222 228 240 240 237 243 244 262 273 267 259 262 260 269 271 271 275 280 286 288 283 280 283 284
193 187 177 170 171 180 188 184 172 173 192 192 212 216 226 252 270 271 271 220 240 252 253 249 261 269 275 279 269 259 267 267 265 274 279 285 287 289 293 284 268 273 281
166 155 156 162 168 169 161 156 154 154 153 174 224 255 245 259 274 278 281 259 237 249 255 253 255 278 282 284 284 270 275 285 268 261 264 270 275 271 271 265 249 247 262
145 146 151 154 151 143 143 144 144 146 150 182 248 295 280 274 281 281 285 287 285 259 258 255 261 281 285 287 289 287 293 299 287 275 274 274 273 270 267 264 259 251 248
141 146 147 139 135 144 151 154 145 150 165 214 228 267 287 283 285 293 294 296 295 289 267 276 284 289 293 293 293 297 302 298 278 274 277 278 268 265 269 272 272 269 267
145 147 146 141 137 133 143 157 165 181 192 220 240 260 279 286 278 270 267 282 291 293 287 285 293 299 301 297 297 302 295 271 275 269 274 277 277 276 273 268 272 278 285
143 146 145 144 148 145 150 188 199 209 211 223 227 229 250 268 270 285 291 274 267 264 287 280 279 281 278 277 278 276 274 283 287 276 276 284 287 284 283 275 264 267 269
146 151 153 152 153 153 145 17 322 275 281 281 274 271 270 277 290 297 301 302 304 304 308 291 283 278 273 275 278 279 274 272 269 271 274 277 283 284 286 281 269 261 268
155 159 158 159 163 170 176 179 280 327 315 304 297 298 297 297 299 301 303 304 303 308 305 285 281 280 278 278 276 274 274 274 271 271 273 275 278 281 280 280 279 273 272
144 155 156 161 166 175 189 207 221 251 296 304 305 305 305 304 304 304 305 313 306 306 278 272 273 273 272 271 271 272 274 278 273 271 270 273 274 278 279 277 276 271 275
140 147 150 154 161 170 182 199 226 247 264 284 297 304 309 311 309 304 311 298 277 277 274 271 269 269 269 269 269 270 269 272 271 269 268 269 269 269 271 272 274 280 279
139 154 151 149 153 166 182 203 232 247 263 271 277 283 297 301 291 291 289 270 267 270 269 269 270 268 268 266 267 267 269 269 268 264 265 266 266 262 263 266 267 270 267
141 150 147 139 164 186 199 216 230 243 259 272 275 281 288 285 273 276 279 275 268 268 268 269 270 272 268 265 263 264 264 266 262 260 261 261 261 262 260 259 261 261 264
143 148 156 167 181 198 217 216 225 244 257 268 277 286 295 295 280 277 277 276 270 264 262 264 266 263 259 258 259 262 264 264 262 259 259 258 256 258 260 258 258 259 260
140 147 156 178 199 236 262 240 244 252 260 266 272 278 280 276 273 273 273 273 271 269 267 263 266 267 263 258 255 254 259 261 259 254 255 257 254 254 256 256 255 254 255
148 159 173 191 213 228 241 251 256 261 264 268 270 271 272 272 273 275 276 275 273 272 269 266 264 265 267 268 264 259 256 258 255 250 245 247 249 251 252 252 250 247 249
149 166 188 207 222 235 247 258 263 266 269 271 272 272 273 274 275 276 275 273 274 274 273 271 268 268 268 267 267 266 269 271 270 260 242 237 239 240 244 246 245 246 245
156 178 203 215 228 239 248 257 263 266 269 272 272 271 272 274 275 276 276 274 274 275 275 274 268 268 269 270 269 271 275 275 274 271 258 239 232 234 233 237 239 240 240